Regional Weather Roundup
Issued by NWS

Home | Current Version | Previous Version | Text Only | Print | Product List | Glossary Off
Versions: 1 2 3 4 5 6 7 8 9 10 11 12 13 14 15 16 17 18 19 20 21 22 23 24 25 26 27 28 29 30 31 32 33 34 35 36 37 38 39 40 41 42 43 44 45 46 47 48 49 50

000
ASUS43 KIND 280309
RWRIN

WEATHER ROUNDUP FOR INDIANA
NATIONAL WEATHER SERVICE INDIANAPOLIS IN
1100 PM EDT SUN JUL 27 2014

NOTE: "FAIR" INDICATES FEW OR NO CLOUDS BELOW 12,000 FEET WITH NO
SIGNIFICANT WEATHER AND/OR OBSTRUCTIONS TO VISIBILITY.

* - STATION DOES NOT REPORT WEATHER SUCH AS PRECIPITATION OR FOG.

+ - STATION NOT QUALITY CONTROLLED BY THE NATIONAL WEATHER SERVICE.
    USE DATA WITH CAUTION...ESPECIALLY DEWPOINT AND RELATIVE
    HUMIDITY OBSERVATIONS.

INZ001>003-010>013-019-020-280400-
NORTHWEST INDIANA

CITY           SKY/WX    TMP DP  RH WIND       PRES   REMARKS
GARY /AIRPORT/ CLOUDY    67  63  87 N7        29.87R
KNOX *+        MOCLDY    65  57  74 N9        29.84R
LA PORTE +     MOCLDY    64  58  81 NW8       29.85R
MICHIGAN CITY+ MOCLDY    64  57  77 N12G20    29.85R
MONTICELLO +   CLEAR     66  59  78 W5        29.84R
RENSSELAER +   CLEAR     66  59  77 W6        29.85R
VALPARAISO     CLOUDY    66  59  78 NW6       29.86R

$$

LMZ046-743>745-280400-
SOUTHERN LAKE MICHIGAN

STATION/POSITION TIME  TEMP WIND        PRES
                       AIR  DIR/SP/G
                 (UTC) (F)  (DEG/KT/KT) (MB)
BURNS HARBOR     0300   68  350/ 15/ 19 1011.5R
MICHIGAN CITY    0300   66  330/ 24/ 28   N/A

$$

INZ004-005-014>016-021>024-280400-
NORTH CENTRAL INDIANA

CITY           SKY/WX    TMP DP  RH WIND       PRES   REMARKS
GOSHEN         CLEAR     67  56  67 NW13      29.79R
LOGANSPORT +   MOCLDY    68  55  64 NW5       29.84R
PERU/GRISSOM   CLOUDY    68  63  82 NW7       29.83R
ROCHESTER +    CLEAR     68  59  73 NW13      29.83R
SOUTH BEND     CLEAR     65  58  78 NW15G22   29.82R
WARSAW +       CLEAR     64  57  77 W9        29.80S

$$

INZ006>009-017-018-025>027-280400-
NORTHEAST INDIANA

CITY           SKY/WX    TMP DP  RH WIND       PRES   REMARKS
ANGOLA *+      PTCLDY    64  55  72 W3        29.77S
AUBURN +       CLEAR     64  55  72 CALM      29.78S
FORT WAYNE     PTCLDY    66  57  72 W9        29.79R
HUNTINGTON +   CLEAR     66  57  72 W3        29.80R

$$

INZ028-029-035-036-043>045-051>053-280400-
WEST CENTRAL INDIANA

CITY           SKY/WX    TMP DP  RH WIND       PRES   REMARKS
GREENCASTLE +  CLEAR     70  55  60 NW7       29.88R
LAFAYETTE      CLEAR     66  58  75 W8        29.85R
TERRE HAUTE    CLEAR     71  57  61 NW10      29.89R

$$

INZ030>032-037>040-046>048-054>057-064-065-280400-
CENTRAL INDIANA

CITY           SKY/WX    TMP DP  RH WIND       PRES   REMARKS
CP ATTERBURY + CLEAR     72  57  60 NW10      29.85R
GREENWOOD *+   CLEAR     73  61  64 NW9G20    29.85R
INDIANAPOLIS   PTCLDY    69  57  65 W15       29.85R
-EAGLE CREEK   CLEAR     70  57  63 NW13      29.85R
KOKOMO *+      CLOUDY    68  59  73 NW9G18    29.83R
MARION +       CLOUDY    65  59  80 NW5       29.83R
MT COMFORT *+  CLEAR     70  61  73 W16G24    29.84R
SHELBYVILLE    CLEAR     73  57  57 NW18      29.83R
ZIONSVILLE +   CLEAR     69  56  64 W7        29.86R

$$

INZ033-034-041-042-049-050-058-059-280400-
EAST CENTRAL INDIANA

CITY           SKY/WX    TMP DP  RH WIND       PRES   REMARKS
MUNCIE         CLOUDY    70  56  61 NW18      29.82R

$$

INZ060-061-067>069-081>083-085>088-280400-
SOUTHWEST INDIANA

CITY           SKY/WX    TMP DP  RH WIND       PRES   REMARKS
EVANSVILLE     CLEAR     78  60  53 N13       29.89R
WASHINGTON +   CLEAR     72  61  67 NW12G18   29.88S

$$

INZ062-063-066-070>080-084-089>092-280400-
SOUTH CENTRAL AND SOUTHEAST INDIANA

CITY           SKY/WX    TMP DP  RH WIND       PRES   REMARKS
BLOOMINGTON    CLEAR     73  57  57 NW8G18    29.87R
SEYMOUR +      CLEAR     68  46  45 NW9       29.84R

$$



USA.gov is the U.S. government's official web portal to all federal, state and local government web resources and services.